Location: Home
(42.5358°N, 72.7383°W)
Time: 17:12:00
(UTC-04:00)

Explorer 11/Cluster Stage 4 - Pass Details

Date: 03 August 2024
Orbit: 464 x 1208 km, 28.8° (Epoch: 19 September)

Event Time Altitude Azimuth Distance (km) Brightness Sun altitude
Rises 01:43:09 0° 214° (SW) 3,900 - -29.2°
Reaches altitude 10° 01:46:53 10° 197° (SSW) 3,038 - -29.0°
Maximum altitude 01:51:40 18° 158° (SSE) 2,572 - -28.8°
Exits shadow 01:56:03 11° 123° (ESE) 3,041 9.4 -28.6°
Drops below altitude 10° 01:56:35 10° 120° (ESE) 3,146 9.5 -28.6°
Sets 02:00:31 0° 102° (ESE) 4,093 10.3 -28.4°
